This is the latest recevied weather packets stored in our database for station/object DL9GRB-13. If no packets are shown the sender has not sent any weather packets the latest 10 day(s).
| Time | Temp. | Humidity | Pressure | Rain* | Wind** | Luminosity | Snow |
|---|---|---|---|---|---|---|---|
| 1777378986 | 13.89° C | 43% | 1026.7 hPa | 0 mm | - | 467 W/m² | - |
| 1777378805 | 13.89° C | 43% | 1026.7 hPa | 0 mm | - | 688 W/m² | - |
| 1777378626 | 13.89° C | 44% | 1026.8 hPa | 0 mm | - | 761 W/m² | - |
| 1777378445 | 13.89° C | 45% | 1026.9 hPa | 0 mm | - | 760 W/m² | - |
| 1777378265 | 13.89° C | 46% | 1026.9 hPa | 0 mm | - | 760 W/m² | - |
| 1777378085 | 13.33° C | 49% | 1026.9 hPa | 0 mm | - | 766 W/m² | - |
| 1777377905 | 13.33° C | 46% | 1027.1 hPa | 0 mm | - | 763 W/m² | - |
| 1777377726 | 13.33° C | 46% | 1027.2 hPa | 0 mm | - | 762 W/m² | - |
| 1777377545 | 13.89° C | 44% | 1027.1 hPa | 0 mm | - | 738 W/m² | - |
| 1777377366 | 13.89° C | 43% | 1027.2 hPa | 0 mm | - | 710 W/m² | - |
| 1777377185 | 13.33° C | 49% | 1027 hPa | 0 mm | - | 759 W/m² | - |
| 1777377005 | 13.33° C | 48% | 1027 hPa | 0 mm | - | 757 W/m² | - |
| 1777376826 | 13.33° C | 47% | 1027.1 hPa | 0 mm | - | 755 W/m² | - |
| 1777376645 | 13.33° C | 49% | 1027.1 hPa | 0 mm | - | 755 W/m² | - |
| 1777376466 | 13.33° C | 51% | 1027.1 hPa | 0 mm | - | 757 W/m² | - |
| 1777376285 | 12.78° C | 50% | 1027.1 hPa | 0 mm | - | 760 W/m² | - |
| 1777376105 | 12.78° C | 51% | 1027 hPa | 0 mm | - | 763 W/m² | - |
| 1777375925 | 12.78° C | 51% | 1027.2 hPa | 0 mm | - | 765 W/m² | - |
| 1777375746 | 12.78° C | 51% | 1027.3 hPa | 0 mm | - | 766 W/m² | - |
| 1777375565 | 12.78° C | 51% | 1027.2 hPa | 0 mm | - | 767 W/m² | - |
| 1777375385 | 12.78° C | 51% | 1027 hPa | 0 mm | - | 771 W/m² | - |
| 1777375205 | 13.33° C | 49% | 1027.2 hPa | 0 mm | - | 773 W/m² | - |
| 1777375025 | 13.33° C | 49% | 1027.1 hPa | 0 mm | - | 773 W/m² | - |
| 1777374845 | 12.78° C | 50% | 1027 hPa | 0 mm | - | 776 W/m² | - |
| 1777374665 | 12.78° C | 52% | 1027.1 hPa | 0 mm | - | 777 W/m² | - |
* Rain latest hour (hover to see other rain measurements)
** Current wind speed in m/s (hover to see current wind gust speed)